Temp
10 10 10 10 11 11 10 10 9 9 9 9 9 9 9 9 9 9 8 8 8 8 7 7 6 6 6 6 6 6 6 6 6 6 6 6 6 7 7 7 7 8 7 8 8 7 8 8 7
10 10 10 11 11 12 10 9 9 9 9 9 9 8 8 9 8 8 8 8 8 8 8 7 7 6 6 6 6 6 6 6 6 6 6 7 7 7 7 7 7 7 7 7 7 7 7 8 8
10 10 10 10 11 11 10 10 9 9 9 9 9 8 8 9 8 8 8 8 8 8 8 8 7 7 7 6 6 6 6 6 6 7 7 7 7 7 7 7 7 7 7 7 7 7 7 7 7
10 10 10 11 11 10 10 9 9 9 9 9 8 9 8 8 8 8 8 8 8 8 8 8 7 7 7 7 6 6 6 7 6 7 7 7 7 6 7 7 7 7 7 7 7 7 7 7 7
10 10 10 11 10 10 9 9 9 8 8 9 8 8 9 8 8 8 8 8 8 8 8 8 8 8 7 7 7 6 6 6 6 6 6 6 6 6 6 7 7 7 7 7 7 7 7 7 7
10 10 11 11 10 9 9 10 9 8 8 8 8 8 9 8 8 8 8 8 8 8 8 8 8 8 7 7 7 7 7 6 6 6 6 6 6 6 6 6 7 7 7 7 7 7 7 7 7
10 9 10 11 11 9 9 10 9 8 8 9 8 8 8 8 8 8 8 8 8 8 7 7 8 7 7 7 7 7 7 6 6 6 6 5 5 5 6 6 6 7 7 7 7 7 7 7 7
10 10 10 10 10 9 9 9 9 8 8 8 8 8 9 8 8 8 8 8 8 8 8 7 7 7 7 7 7 7 7 7 7 6 6 6 6 7 7 7 7 7 7 7 7 7 7 7 6
10 10 10 10 10 10 9 9 9 9 8 8 8 8 8 8 8 8 8 8 8 8 8 8 7 7 7 7 7 7 7 7 6 6 6 6 6 6 6 7 7 7 7 7 7 7 6 6 6
9 9 9 10 9 9 9 8 8 8 8 8 8 8 8 8 8 8 8 8 8 8 8 8 7 7 7 7 7 7 7 7 6 6 6 5 5 5 5 6 7 7 7 7 7 6 7 6 6
9 9 9 9 9 9 9 8 8 8 7 8 10 9 8 8 8 8 8 8 8 8 8 8 8 7 7 7 7 7 7 7 6 6 5 5 5 5 4 4 5 6 7 6 6 6 6 6 6
8 9 9 9 9 9 8 8 9 8 8 8 8 8 8 8 8 8 8 8 8 7 7 7 7 7 7 7 7 7 7 7 7 6 6 4 4 4 4 5 5 6 6 6 6 6 6 5 5
8 8 9 9 9 9 9 8 8 9 9 8 8 8 8 8 8 8 8 8 7 7 7 7 7 7 7 7 7 7 7 7 7 6 6 5 5 5 4 4 3 4 5 5 5 5 5 5 5
8 8 8 8 8 8 8 8 8 8 9 8 8 8 8 8 8 8 8 8 7 8 8 7 7 7 6 6 6 6 6 6 6 6 6 5 5 5 5 5 4 4 4 4 2 4 3 4 4
7 7 7 8 8 8 8 8 9 8 8 8 8 8 8 8 8 7 7 7 7 8 8 8 7 7 7 7 6 6 6 6 5 5 5 5 4 4 4 4 4 4 4 4 4 3 2 1 1
7 7 7 8 8 8 8 9 8 9 8 8 8 8 8 8 8 7 7 7 7 7 7 7 7 7 7 7 6 6 6 6 6 5 5 4 4 4 4 4 4 4 4 3 1 2 1 2 1
6 7 7 7 7 7 7 8 8 8 8 8 8 8 8 7 7 7 7 7 7 7 7 7 7 7 7 7 6 6 6 6 5 5 5 5 4 4 4 4 4 4 3 3 2 2 2 2 2
7 7 7 7 7 7 7 8 7 8 8 7 8 8 7 7 7 6 6 6 7 7 6 6 7 6 6 6 6 6 6 5 5 4 4 4 4 4 4 3 3 3 2 2 2 2 2 2 2
7 7 7 7 7 6 7 7 7 7 7 7 7 7 7 7 7 7 7 6 6 6 6 6 6 6 6 6 6 5 5 5 4 4 4 4 3 3 3 3 2 2 2 2 2 2 2 2 2
5 6 6 7 6 6 6 6 6 5 7 7 7 7 7 8 7 7 6 6 6 6 6 6 6 5 5 5 5 5 5 4 4 4 3 3 3 2 2 2 2 2 1 2 1 1 1 1 1
5 5 6 5 6 5 5 5 6 7 7 7 7 8 8 8 7 6 6 6 6 6 6 5 5 5 5 5 5 4 4 4 3 3 3 2 2 2 2 1 1 1 1 1 1 1 1 1 1
5 5 5 5 5 4 5 3 5 6 6 7 8 8 8 8 6 6 6 6 6 6 5 5 5 5 4 4 4 4 3 3 2 2 2 2 2 2 1 1 1 0 0 -0 -0 -0 -1 -1 -1
5 5 5 4 4 3 4 3 4 5 7 7 8 7 7 6 7 5 5 6 6 5 5 4 4 4 4 4 3 3 3 2 2 1 1 1 1 1 0 0 -0 -1 -1 -1 -1 -2 -2 -2 -2
4 4 4 4 3 0 3 3 4 6 7 7 7 7 6 6 6 6 6 6 6 5 4 3 3 3 3 3 3 2 2 1 1 1 0 0 -0 -0 -1 -1 -1 -1 -2 -2 -2 -2 -2 -2 -3
3 3 3 0 -0 -0 4 4 4 6 7 7 7 6 6 7 7 7 6 6 5 5 4 3 3 3 2 2 2 2 1 1 0 -0 -0 -1 -1 -2 -2 -2 -2 -2 -2 -2 -3 -3 -4 -4 -4
3 3 3 -0 -0 0 3 3 4 6 7 7 7 7 7 7 7 7 6 5 5 4 3 3 2 2 2 2 1 1 1 0 -0 -1 -1 -2 -2 -2 -3 -3 -2 -2 -3 -4 -4 -4 -5 -5 -5
1 1 3 3 2 -0 3 4 5 5 6 7 7 7 8 8 7 6 6 6 5 4 3 2 2 2 1 1 1 0 -0 -0 -1 -2 -2 -2 -2 -3 -3 -3 -3 -4 -4 -5 -5 -5 -6 -6 -7
1 2 1 1 -3 -2 3 4 5 6 8 6 7 8 8 7 7 7 6 5 4 3 3 2 2 1 0 0 0 -0 -1 -1 -2 -2 -2 -3 -3 -3 -4 -4 -5 -5 -5 -6 -6 -7 -7 -8 -9
2 0 2 2 1 -2 -1 4 6 7 6 6 7 7 7 7 7 6 5 5 4 3 3 2 1 1 0 -0 -1 -1 -2 -2 -2 -2 -3 -3 -4 -4 -5 -5 -6 -6 -6 -7 -8 -8 -9 -10 -10
3 3 2 2 1 2 2 3 5 5 6 7 7 7 7 6 6 6 5 5 4 3 3 2 1 0 -0 -1 -1 -2 -2 -2 -3 -3 -4 -4 -5 -5 -6 -6 -7 -7 -8 -8 -9 -10 -11 -11 -12
Height
3172 3173 3174 3175 3179 3178 3178 3181 3182 3183 3182 3182 3183 3183 3184 3183 3185 3189 3187 3188 3188 3189 3190 3192 3193 3195 3196 3197 3198 3198 3199 3199 3200 3200 3200 3199 3198 3198 3198 3197 3197 3197 3197 3197 3197 3197 3197 3197 3197
3173 3174 3176 3176 3177 3177 3181 3182 3181 3181 3182 3183 3184 3185 3184 3184 3185 3187 3188 3189 3189 3190 3190 3192 3193 3194 3195 3196 3197 3198 3199 3200 3200 3199 3199 3199 3198 3198 3199 3199 3199 3198 3198 3198 3197 3198 3198 3198 3198
3174 3175 3178 3176 3178 3178 3180 3183 3181 3182 3183 3184 3185 3185 3184 3185 3188 3188 3189 3190 3191 3191 3192 3193 3193 3194 3195 3197 3198 3198 3199 3199 3199 3199 3199 3199 3198 3199 3199 3198 3198 3198 3198 3198 3198 3198 3198 3199 3199
3175 3177 3179 3179 3179 3180 3181 3183 3182 3183 3184 3184 3186 3186 3186 3187 3188 3189 3190 3191 3191 3192 3193 3194 3194 3195 3196 3197 3197 3198 3198 3199 3199 3200 3199 3199 3199 3199 3198 3198 3198 3199 3199 3198 3198 3199 3199 3199 3199
3176 3178 3179 3180 3180 3180 3181 3181 3183 3184 3185 3185 3186 3184 3186 3187 3188 3189 3190 3191 3191 3192 3193 3193 3194 3195 3196 3197 3197 3198 3198 3198 3199 3199 3199 3199 3199 3199 3199 3199 3198 3199 3199 3199 3199 3200 3200 3200 3199
3177 3178 3179 3180 3180 3180 3180 3181 3183 3185 3185 3186 3187 3185 3187 3187 3188 3189 3190 3191 3191 3192 3192 3193 3193 3194 3195 3196 3197 3197 3198 3198 3199 3198 3199 3199 3199 3198 3198 3198 3198 3198 3199 3199 3199 3199 3199 3200 3200
3177 3178 3178 3180 3179 3180 3180 3181 3183 3185 3185 3185 3186 3185 3186 3186 3187 3188 3189 3190 3190 3190 3191 3192 3193 3194 3194 3195 3196 3197 3198 3198 3198 3198 3198 3198 3198 3197 3197 3198 3198 3198 3198 3198 3198 3198 3198 3198 3198
3176 3178 3178 3179 3180 3181 3178 3180 3181 3183 3183 3184 3185 3184 3185 3186 3186 3187 3187 3188 3189 3189 3190 3190 3191 3192 3193 3194 3195 3195 3196 3197 3198 3198 3198 3198 3198 3197 3197 3197 3197 3198 3198 3198 3199 3198 3198 3198 3198
3175 3177 3178 3179 3180 3180 3177 3179 3180 3182 3182 3183 3184 3184 3184 3184 3185 3185 3185 3185 3186 3187 3188 3189 3189 3190 3191 3191 3192 3193 3194 3195 3196 3196 3196 3196 3196 3196 3196 3196 3196 3197 3197 3197 3197 3196 3197 3196 3196
3174 3175 3176 3176 3177 3178 3175 3178 3177 3180 3179 3181 3182 3182 3183 3183 3183 3183 3183 3183 3184 3184 3185 3186 3187 3188 3189 3189 3190 3190 3190 3191 3192 3193 3194 3194 3194 3193 3194 3193 3193 3193 3194 3193 3193 3193 3193 3194 3193
3173 3174 3174 3174 3174 3175 3174 3175 3175 3177 3178 3176 3177 3181 3180 3180 3180 3180 3180 3181 3182 3182 3183 3184 3184 3185 3185 3186 3187 3188 3188 3189 3189 3189 3191 3192 3193 3192 3191 3190 3190 3190 3191 3191 3192 3192 3192 3192 3192
3171 3171 3172 3171 3173 3173 3172 3172 3173 3174 3174 3175 3176 3177 3178 3178 3177 3178 3178 3179 3179 3180 3181 3182 3182 3183 3183 3183 3184 3184 3185 3185 3186 3187 3188 3188 3189 3189 3188 3187 3186 3186 3186 3187 3187 3188 3188 3188 3189
3168 3168 3169 3169 3169 3170 3170 3171 3171 3170 3172 3173 3173 3174 3174 3175 3175 3175 3175 3176 3176 3177 3177 3178 3178 3178 3179 3180 3180 3181 3183 3184 3184 3185 3186 3186 3185 3185 3185 3184 3183 3183 3183 3182 3182 3182 3183 3182 3183
3166 3166 3167 3167 3167 3167 3168 3168 3166 3168 3169 3170 3170 3170 3170 3171 3171 3172 3173 3173 3173 3174 3173 3173 3173 3174 3175 3177 3178 3179 3180 3181 3182 3183 3184 3184 3184 3184 3183 3183 3182 3181 3180 3179 3179 3178 3178 3177 3177
3165 3165 3164 3164 3165 3165 3165 3164 3162 3163 3164 3165 3165 3166 3166 3167 3168 3169 3170 3170 3170 3170 3169 3169 3169 3170 3172 3173 3174 3175 3176 3177 3178 3180 3181 3182 3182 3182 3182 3181 3179 3178 3178 3177 3176 3174 3174 3175 3174
3163 3162 3162 3161 3161 3161 3162 3158 3160 3160 3160 3159 3161 3162 3163 3164 3164 3164 3165 3165 3165 3165 3165 3166 3166 3167 3168 3169 3170 3171 3172 3173 3174 3175 3176 3177 3177 3177 3177 3176 3176 3175 3173 3173 3173 3173 3173 3173 3173
3159 3159 3159 3159 3158 3158 3158 3156 3155 3156 3156 3156 3157 3158 3159 3160 3160 3160 3160 3160 3160 3160 3161 3162 3163 3164 3165 3165 3166 3166 3167 3168 3170 3171 3172 3172 3173 3173 3172 3172 3172 3172 3172 3172 3172 3172 3173 3172 3172
3157 3157 3156 3156 3156 3153 3153 3153 3151 3152 3153 3152 3152 3153 3154 3154 3155 3155 3155 3155 3155 3155 3156 3158 3159 3159 3160 3161 3161 3162 3163 3165 3166 3167 3167 3168 3169 3170 3170 3170 3170 3170 3170 3170 3169 3169 3169 3168 3168
3153 3153 3153 3154 3151 3150 3149 3147 3148 3147 3147 3147 3146 3147 3148 3147 3149 3149 3149 3149 3149 3150 3151 3153 3154 3155 3156 3157 3158 3159 3160 3161 3162 3163 3164 3165 3166 3166 3167 3167 3167 3167 3167 3167 3165 3164 3163 3163 3162
3147 3147 3148 3149 3147 3147 3144 3140 3141 3140 3138 3140 3140 3139 3139 3139 3142 3142 3142 3143 3144 3146 3147 3148 3149 3150 3152 3154 3155 3157 3158 3158 3159 3161 3162 3163 3163 3164 3164 3164 3164 3163 3162 3161 3160 3158 3156 3155 3154
3142 3142 3144 3146 3144 3141 3139 3131 3132 3134 3132 3130 3130 3130 3128 3130 3133 3135 3136 3138 3139 3141 3142 3144 3146 3148 3149 3150 3152 3153 3154 3155 3156 3158 3159 3159 3160 3160 3160 3160 3159 3159 3158 3156 3155 3153 3151 3149 3147
3137 3139 3140 3140 3141 3137 3136 3123 3123 3124 3124 3121 3121 3121 3118 3120 3123 3127 3129 3131 3134 3136 3138 3140 3142 3144 3145 3146 3148 3150 3151 3152 3153 3154 3155 3156 3156 3155 3155 3154 3154 3153 3151 3150 3148 3146 3144 3142 3139
3130 3133 3135 3134 3133 3131 3130 3127 3106 3113 3112 3112 3110 3112 3111 3112 3115 3118 3122 3125 3128 3130 3132 3134 3136 3137 3139 3141 3144 3145 3147 3148 3149 3150 3150 3150 3150 3150 3149 3148 3147 3147 3145 3143 3141 3139 3136 3133 3130
3124 3128 3129 3129 3129 3122 3120 3121 3095 3102 3100 3102 3102 3103 3103 3104 3107 3110 3114 3118 3121 3124 3126 3128 3131 3133 3135 3137 3139 3141 3142 3143 3144 3144 3144 3145 3144 3144 3144 3142 3140 3138 3137 3134 3132 3130 3128 3124 3122
3120 3124 3126 3127 3125 3112 3110 3108 3089 3096 3095 3095 3093 3095 3096 3097 3100 3104 3109 3112 3115 3118 3120 3123 3126 3128 3130 3132 3134 3135 3137 3138 3138 3138 3138 3138 3138 3137 3137 3134 3132 3130 3127 3125 3123 3122 3120 3116 3113
3111 3116 3119 3120 3113 3105 3103 3090 3083 3085 3089 3089 3089 3089 3089 3092 3096 3100 3103 3107 3110 3113 3115 3118 3121 3123 3125 3127 3128 3129 3130 3131 3132 3132 3132 3131 3131 3130 3128 3125 3123 3120 3119 3116 3115 3111 3109 3107 3103
3103 3105 3110 3110 3106 3103 3091 3081 3079 3080 3082 3081 3082 3083 3085 3088 3091 3094 3098 3101 3104 3107 3110 3113 3115 3117 3119 3120 3122 3124 3124 3124 3125 3125 3125 3124 3122 3121 3118 3117 3115 3113 3111 3108 3105 3103 3100 3097 3094
3094 3099 3104 3108 3108 3102 3078 3074 3068 3070 3073 3074 3075 3077 3079 3083 3086 3089 3092 3096 3099 3101 3103 3106 3108 3110 3112 3114 3116 3116 3117 3117 3117 3117 3117 3115 3113 3111 3110 3109 3107 3105 3104 3099 3098 3094 3091 3087 3086
3085 3087 3092 3094 3094 3089 3080 3063 3061 3064 3067 3069 3071 3073 3076 3079 3082 3085 3088 3091 3093 3095 3098 3100 3102 3104 3105 3107 3108 3109 3109 3109 3109 3109 3108 3106 3104 3103 3103 3101 3098 3096 3096 3092 3091 3087 3082 3080 3076
3076 3075 3079 3083 3084 3078 3076 3040 3058 3062 3065 3066 3068 3069 3071 3075 3077 3080 3082 3084 3086 3088 3091 3093 3094 3097 3098 3100 3101 3101 3101 3101 3101 3100 3099 3097 3096 3095 3094 3092 3090 3089 3086 3082 3081 3078 3075 3071 3068
Wind_Speed
10 9 8 7 7 6 7 5 6 7 2 10 10 10 6 8 7 6 7 6 6 10 10 10 9 8 6 5 4 3 2 0 2 4 5 6 6 6 6 6 6 7 7 7 8 8 7 7 6
11 9 8 7 3 12 7 6 5 5 7 10 14 10 2 13 10 9 7 6 6 7 10 11 10 8 7 6 4 3 2 3 4 4 5 5 7 7 7 7 7 7 8 8 8 9 8 8 6
10 7 5 3 6 12 9 6 4 6 8 10 6 10 4 9 8 8 7 5 5 5 5 7 9 8 7 6 6 4 4 3 3 3 4 4 5 5 5 6 7 7 7 7 8 9 9 9 8
8 7 7 3 1 8 5 8 6 5 5 7 5 2 3 6 6 5 6 5 4 4 5 5 6 7 7 6 6 5 5 4 4 4 5 5 6 6 6 7 7 7 7 7 8 8 8 8 8
7 5 3 1 2 6 11 9 11 6 5 6 8 4 0 3 3 2 3 3 3 2 3 3 5 6 6 6 6 5 5 6 6 5 5 6 7 7 7 7 8 9 9 9 8 8 8 8 8
7 3 2 4 5 5 6 8 8 5 3 6 4 4 1 2 3 1 0 1 0 0 1 2 4 5 6 7 7 7 7 7 7 7 7 7 8 8 7 7 8 8 9 8 8 8 8 9 9
8 6 4 2 6 6 7 8 6 5 5 6 5 8 0 3 5 5 6 6 5 4 3 3 3 4 6 7 8 8 8 8 8 8 9 9 11 12 12 13 11 10 10 10 10 10 10 10 10
7 6 5 7 7 7 14 10 12 10 11 8 7 6 3 5 7 9 10 8 8 8 7 7 6 5 5 7 8 9 10 10 10 10 11 12 13 14 15 16 14 12 13 13 13 13 12 12 12
7 7 4 6 8 10 16 13 12 11 13 11 9 9 10 9 11 12 12 11 10 9 9 9 9 9 9 10 9 10 11 11 11 11 12 12 14 14 14 13 11 12 14 14 15 15 15 15 15
8 8 5 11 11 10 17 12 13 14 15 13 14 13 12 12 13 12 12 9 10 11 11 11 12 12 13 14 13 13 13 12 13 13 11 10 11 14 17 15 16 15 15 15 15 16 17 16 17
8 9 11 15 16 16 18 13 19 11 11 16 14 8 12 14 13 11 10 8 8 8 8 10 11 13 14 15 15 16 15 15 14 15 12 11 14 19 16 20 22 21 19 19 18 18 18 20 19
12 13 15 18 14 15 17 16 16 17 19 18 15 14 15 14 13 12 11 10 10 10 12 12 13 14 14 14 15 15 16 16 16 16 15 13 16 19 17 19 19 19 20 21 20 20 20 20 20
13 17 13 14 13 15 17 16 18 20 19 19 19 19 17 17 16 14 14 13 14 15 16 16 17 18 18 18 19 18 17 17 17 17 16 17 19 20 21 19 19 20 19 20 20 21 19 20 21
15 12 12 13 13 15 16 17 22 20 20 20 22 22 20 19 17 16 17 17 18 18 20 20 19 19 21 21 20 20 20 20 20 20 19 19 20 21 22 22 23 23 23 24 22 21 21 21 21
16 17 16 16 16 19 19 24 26 24 24 22 20 21 22 19 18 18 18 19 20 21 22 19 17 16 17 18 20 20 20 19 18 18 18 18 19 19 20 22 22 23 22 22 22 21 21 17 26
16 17 16 15 15 16 19 27 22 23 19 21 22 19 19 19 21 21 21 21 21 21 17 14 12 11 11 13 15 17 18 18 18 17 15 16 16 17 19 20 20 18 17 15 15 17 16 17 18
15 17 12 13 14 18 16 14 17 20 21 20 19 19 21 23 24 23 23 24 22 19 15 15 14 15 15 16 17 18 18 18 16 15 16 17 17 17 15 11 9 9 10 12 12 14 14 15 15
11 18 17 16 17 19 20 21 25 25 22 21 22 24 25 27 26 26 26 25 22 19 17 17 16 16 16 16 17 17 17 15 14 14 13 13 11 8 6 6 7 8 10 12 16 19 21 23 25
20 19 17 13 15 21 26 28 25 26 28 29 30 30 29 31 30 30 29 26 21 20 19 18 17 16 15 15 15 14 12 13 12 12 11 9 7 6 7 9 10 12 16 20 24 26 28 29 30
22 23 26 24 24 27 30 33 30 28 34 34 35 37 36 36 33 33 30 26 22 21 20 20 18 16 14 13 13 12 12 10 10 9 8 8 9 10 11 13 16 19 23 26 29 30 31 31 32
27 26 25 22 22 26 29 38 38 37 40 42 43 44 45 42 38 34 30 26 24 22 21 18 16 16 15 14 13 13 11 10 9 10 11 12 13 15 17 20 22 25 29 31 31 32 32 34 35
27 24 21 23 23 18 15 11 24 17 20 31 35 34 37 34 35 36 30 28 25 23 21 19 18 17 16 16 15 14 12 12 12 13 14 15 18 21 23 24 27 29 30 30 31 31 32 33 34
28 26 23 25 26 25 32 24 33 27 28 39 42 38 39 37 33 31 30 28 26 25 22 22 22 20 20 18 18 16 16 16 17 17 18 19 20 23 25 27 29 31 32 32 33 34 34 35 36
28 25 23 22 22 12 30 30 26 31 29 29 35 37 38 35 30 29 29 29 28 25 25 25 24 22 22 21 20 19 18 19 19 20 21 22 23 25 28 30 31 33 36 37 37 38 39 39 40
24 19 3 4 5 8 9 20 41 10 17 21 26 29 30 27 24 27 27 28 28 27 26 26 25 24 24 24 23 21 20 21 22 23 24 24 26 28 29 32 35 38 40 39 39 39 39 40 41
27 32 13 7 5 4 9 14 18 23 22 31 30 26 26 25 25 26 26 27 26 25 26 26 26 25 25 25 24 23 24 25 26 27 27 27 28 31 34 37 40 40 39 39 39 39 40 42 42
20 30 30 18 19 8 15 31 37 32 34 31 27 30 26 28 28 26 27 26 26 26 25 26 26 27 27 27 26 26 27 28 28 28 28 30 33 36 38 39 39 39 40 40 41 41 42 42 43
24 16 17 23 3 6 9 25 27 13 21 25 26 28 29 26 26 27 26 26 25 26 27 28 28 29 30 30 30 30 31 30 29 30 32 35 37 38 40 38 38 38 39 40 41 41 42 43 43
38 28 15 16 17 4 5 13 16 16 20 20 21 25 28 28 26 26 25 24 25 27 28 29 31 32 32 32 33 33 32 31 31 33 35 36 37 40 38 37 38 39 40 41 41 42 42 41 40
33 36 41 23 12 26 24 45 20 11 10 14 20 23 27 31 29 28 28 26 26 26 27 30 33 33 34 35 35 34 33 32 33 36 36 36 38 38 38 39 40 40 41 41 41 40 39 38 37
Wind_Direction
150 140 122 98 61 85 85 106 96 90 51 97 100 87 93 169 148 128 130 123 144 139 155 156 162 167 165 164 173 185 186 277 358 351 347 345 343 335 345 356 7 13 14 17 15 16 16 14 17
145 139 113 82 132 132 94 94 131 158 133 110 92 68 33 100 113 123 124 129 149 149 154 156 162 165 173 179 188 208 258 293 309 316 328 336 343 351 0 8 14 16 15 15 19 18 17 16 17
145 143 145 27 358 72 134 143 184 129 140 97 97 156 176 123 108 107 102 112 129 145 154 157 158 166 176 186 191 205 234 255 285 313 334 336 342 348 360 8 9 11 11 11 13 17 14 13 12
143 130 98 41 100 82 126 155 167 106 124 131 117 28 135 126 113 107 99 99 111 142 146 171 173 177 188 196 198 204 227 262 275 303 319 323 329 338 342 347 348 347 352 356 1 4 4 5 5
151 115 100 351 152 180 159 188 140 155 135 135 114 236 105 185 181 134 136 99 101 116 152 188 192 194 199 207 219 232 247 262 276 289 302 311 314 324 316 328 331 331 334 337 342 342 344 347 348
176 124 190 214 187 207 205 187 168 136 187 138 105 267 188 218 207 205 213 237 316 304 246 236 234 226 223 222 229 234 242 258 275 285 294 297 302 298 294 312 311 312 312 319 322 323 325 328 331
200 203 261 259 211 223 238 199 153 165 189 212 163 246 192 221 220 253 286 279 264 265 259 245 256 269 261 252 246 247 255 262 270 275 286 293 293 296 296 302 301 305 308 310 306 306 306 308 310
227 228 261 231 236 228 240 211 201 181 211 225 206 229 264 247 252 277 284 267 263 259 257 251 253 251 255 265 272 274 274 271 271 280 285 288 295 298 301 299 303 305 303 305 307 306 305 303 301
236 235 254 243 222 237 253 247 228 224 230 244 239 244 266 267 271 279 277 273 263 253 246 247 250 253 260 265 266 263 265 269 268 266 271 282 287 284 282 287 296 292 296 299 302 303 304 304 304
230 229 249 224 214 220 255 231 251 226 243 254 250 255 262 264 269 268 269 266 261 258 258 256 251 250 255 260 261 263 265 263 263 265 272 285 285 284 281 288 292 291 290 287 286 289 291 291 293
237 226 239 244 248 231 247 227 238 238 227 250 253 256 265 272 268 259 254 250 251 254 258 264 266 263 261 258 259 261 261 259 257 257 256 254 261 271 289 290 295 294 296 294 296 294 293 295 295
266 256 255 263 257 248 253 240 247 242 238 251 265 267 272 274 268 250 250 262 268 275 278 273 265 260 257 256 256 255 258 260 263 263 253 249 256 269 276 289 293 298 298 298 297 293 291 291 293
268 266 264 263 257 250 253 253 250 253 254 258 264 267 267 271 257 253 264 272 278 285 292 285 271 257 249 247 247 252 260 267 272 273 273 268 268 272 281 285 288 294 296 294 295 294 290 288 288
269 274 269 260 254 252 256 256 256 258 262 260 263 268 269 265 249 254 264 271 278 286 289 285 273 265 260 261 261 260 261 262 265 267 270 272 277 284 288 289 292 296 299 296 294 293 291 292 288
263 269 270 264 262 261 260 259 266 273 273 268 264 263 265 252 254 262 265 273 277 285 285 279 271 263 260 258 258 260 262 264 264 266 268 271 278 283 287 289 291 291 291 291 291 296 296 303 300
271 276 274 275 270 266 260 266 269 272 273 270 264 259 252 255 263 267 270 276 283 284 272 259 262 262 258 256 255 257 260 263 265 268 270 275 275 279 287 294 298 301 300 300 308 313 305 321 318
269 264 268 267 265 271 259 266 274 272 269 266 265 263 261 261 264 267 273 281 282 275 253 249 260 264 262 259 257 258 258 259 264 265 264 270 280 287 293 301 314 333 348 360 347 348 345 344 332
246 257 270 249 262 267 266 263 265 264 262 269 265 266 266 265 264 270 274 278 276 258 250 252 259 259 254 250 247 248 251 256 255 256 263 273 280 285 299 309 322 329 330 326 320 318 319 317 318
250 259 260 243 270 268 272 277 269 265 260 262 267 270 268 266 267 268 275 275 262 250 252 257 263 257 248 243 242 241 241 238 243 250 259 262 259 262 276 289 297 302 307 311 312 311 310 311 312
255 248 254 260 267 269 274 274 269 258 263 268 270 272 269 267 266 266 272 269 251 249 249 254 250 243 242 239 239 236 233 239 247 253 252 254 260 273 282 291 298 302 306 307 307 307 307 307 307
241 246 259 262 270 271 276 275 271 270 269 270 267 267 268 270 264 263 265 262 247 250 253 254 247 241 236 235 234 236 238 237 236 242 250 260 271 279 285 293 299 301 303 304 303 303 304 303 302
251 260 267 265 256 261 273 281 267 258 248 257 264 264 266 269 260 256 257 253 247 250 250 246 239 239 241 239 242 243 242 241 246 251 256 270 281 284 287 289 294 295 297 299 298 298 299 299 300
255 258 250 256 259 266 262 275 276 279 267 254 265 264 263 263 265 248 247 239 244 242 241 235 230 229 230 231 232 234 240 243 249 255 261 268 275 282 285 288 293 296 301 303 304 304 304 305 306
245 251 254 259 266 259 258 245 277 260 277 270 263 259 260 260 253 233 231 231 240 239 234 229 226 228 229 230 232 236 243 250 253 258 266 274 280 285 288 292 297 303 307 308 307 307 308 307 306
233 232 248 266 202 237 244 238 241 229 255 261 261 261 259 243 231 226 228 238 239 238 233 228 227 228 230 233 237 241 248 254 259 266 270 276 283 289 295 302 307 310 310 309 307 307 308 308 307
238 231 202 231 214 265 234 243 251 266 265 258 256 255 237 228 229 231 235 239 240 237 233 230 232 234 237 241 242 245 251 258 263 265 271 280 289 296 303 309 311 310 308 307 308 308 308 308 307
217 212 226 258 283 291 249 261 265 261 263 262 251 242 240 235 235 235 236 237 239 237 234 233 235 239 241 243 246 251 255 260 263 268 278 288 296 304 309 311 309 307 306 307 307 308 307 307 307
211 221 198 214 226 245 258 259 246 248 274 251 242 239 240 231 230 231 233 237 237 235 233 234 238 240 244 246 249 252 256 261 265 275 287 295 302 307 309 306 305 305 306 306 306 307 309 310 309
209 205 198 208 219 219 281 260 283 282 257 249 247 244 242 234 237 235 238 238 237 236 238 240 242 245 247 249 251 254 258 263 270 281 291 298 302 306 303 302 302 304 304 306 308 310 310 310 309
235 241 224 222 225 233 246 262 259 274 256 234 233 233 237 234 235 237 238 237 237 243 245 248 247 247 248 249 253 256 261 266 274 284 290 295 300 302 300 302 303 304 305 307 309 309 309 310 309